DW5542 Weather Reports


Display with metric or nautical units.
time (UTC)temp
F
wind
direction
speed
MPH
gust
MPH
rain 1hr
in
rain 24hr
in
rain mn
in
humidity
%
barometer
mb
20260902174530 81 124 0.0 1.0 0.00 0.00 0.00 81 1017.3
20260902173028 82 149 0.0 1.0 0.00 0.00 0.00 79 1017.3
20260902171529 83 129 0.0 3.0 0.00 0.00 0.00 78 1017.3
20260902170028 84 146 0.0 1.0 0.00 0.00 0.00 75 1017.3
20260902164527 84 121 0.0 1.0 0.00 0.00 0.00 74 1017.1
20260902163026 84 121 0.0 0.0 0.00 0.00 0.00 74 1017.3
20260902161524 84 152 0.0 1.0 0.00 0.00 0.00 75 1017.2
20260902160024 84 156 0.0 5.0 0.00 0.00 0.00 75 1017.3
20260902154526 84 107 0.0 4.0 0.00 0.00 0.00 75 1017.2
20260902153025 84 149 0.0 3.0 0.00 0.00 0.00 75 1017.3
20260902151522 84 150 0.0 8.0 0.00 0.00 0.00 74 1017.4
20260902150021 84 119 0.0 1.0 0.00 0.00 0.00 73 1017.5
20260902144522 84 102 0.0 3.0 0.00 0.00 0.00 73 1017.6
20260902143024 84 142 0.0 5.0 0.00 0.00 0.00 72 1017.6
20260902141519 85 146 0.0 6.0 0.00 0.00 0.00 73 1017.8
20260902140019 85 156 0.0 10.0 0.00 0.00 0.00 73 1017.9
20260902134517 84 150 0.0 9.0 0.00 0.00 0.00 73 1017.9
20260902133017 85 143 0.0 4.0 0.00 0.00 0.00 71 1017.9
20260902131514 85 152 0.0 6.0 0.00 0.00 0.00 72 1018.0
20260902130013 84 186 0.0 5.0 0.00 0.00 0.00 74 1018.1
20260902124512 85 153 0.0 5.0 0.00 0.00 0.00 72 1018.1
20260902123012 85 149 0.0 7.0 0.00 0.00 0.00 72 1018.3
20260902121510 84 150 0.0 7.0 0.00 0.00 0.00 72 1018.3
20260902120010 84 176 1.0 10.0 0.00 0.00 0.00 71 1018.4
20260902114513 84 163 0.0 1.0 0.00 0.00 0.00 71 1018.4
20260902113012 84 134 0.0 0.0 0.00 0.00 0.00 71 1018.5
20260902111505 84 205 0.0 4.0 0.00 0.00 0.00 73 1018.6
20260902110013 84 115 0.0 7.0 0.00 0.00 0.00 72 1018.7
20260902104501 83 166 0.0 7.0 0.00 0.00 0.00 74 1018.8
20260902103105 82 134 0.0 1.0 0.00 0.00 0.00 74 1018.7
20260902101559 82 113 0.0 4.0 0.00 0.00 0.00 74 1018.8
20260902100106 82 166 0.0 0.0 0.00 0.00 0.00 75 1018.9
20260902094555 82 168 0.0 2.0 0.00 0.00 0.00 75 1018.7
20260902093055 81 135 0.0 11.0 0.00 0.00 0.00 76 1018.9
20260902091554 81 232 0.0 0.0 0.00 0.00 0.00 75 1018.7
20260902090050 81 146 0.0 0.0 0.00 0.00 0.00 74 1018.4
20260902084545 80 224 0.0 0.0 0.00 0.00 0.00 76 1018.2
20260902083041 80 152 0.0 0.0 0.00 0.00 0.00 76 1018.1
20260902081539 79 154 0.0 0.0 0.00 0.00 0.00 77 1017.9
20260902080036 78 131 0.0 0.0 0.00 0.00 0.00 78 1017.7
20260902074538 78 141 0.0 0.0 0.00 0.00 0.00 79 1017.7
20260902073028 77 170 0.0 0.0 0.00 0.00 0.00 81 1017.6
20260902071524 76 139 0.0 0.0 0.00 0.00 0.00 83 1017.4
20260902070021 75 133 0.0 0.0 0.00 0.00 0.00 84 1017.4
20260902064519 73 352 0.0 0.0 0.00 0.00 0.00 86 1017.2
20260902063032 72 352 0.0 0.0 0.00 0.00 0.00 85 1017.0
20260902061522 72 352 0.0 0.0 0.00 0.00 0.00 84 1016.9
20260902060013 0 0.0 0.0 0.00 0.00 0.00 1016.8
20260902054512 0 0.0 0.0 0.00 0.00 0.00 1016.7
20260902053004 0 0.0 0.0 0.00 0.00 0.00 1016.5
20260902051605 0 0.0 0.0 0.00 0.00 0.00 1016.4
20260902044553 0 0.0 0.0 0.00 0.00 0.00 1016.3
20260902043050 0 0.0 0.0 0.00 0.00 0.00 1016.2
20260902041543 0 0.0 0.0 0.00 0.00 0.00 1016.3
20260902040039 0 0.0 0.0 0.00 0.00 0.00 1016.4
20260902034536 71 347 0.0 0.0 0.00 0.00 0.00 84 1016.5
20260902033032 71 330 0.0 0.0 0.00 0.00 0.00 85 1016.5
20260902031531 72 330 0.0 0.0 0.00 0.00 0.00 85 1016.6
20260902030030 72 321 0.0 0.0 0.00 0.00 0.00 86 1016.6
20260902024528 72 321 0.0 0.0 0.00 0.00 0.00 86 1016.6
20260902023027 72 20 0.0 0.0 0.00 0.00 0.00 86 1016.6
20260902021525 73 23 0.0 0.0 0.00 0.00 0.00 87 1016.7
20260902020025 73 23 0.0 0.0 0.00 0.00 0.00 87 1016.6
20260902014523 73 23 0.0 0.0 0.00 0.00 0.00 87 1016.7
20260902013022 73 23 0.0 0.0 0.00 0.00 0.00 87 1016.8
20260902011524 73 21 0.0 0.0 0.00 0.00 0.00 88 1016.9
20260902010019 73 23 0.0 0.0 0.00 0.00 0.00 87 1016.9
20260902004519 73 23 0.0 0.0 0.00 0.00 0.00 87 1017.0
20260902003025 74 23 0.0 0.0 0.00 0.00 0.00 86 1017.0
20260902001515 74 23 0.0 0.0 0.00 0.00 0.00 85 1017.0
20260902000014 75 23 0.0 0.0 0.00 0.00 0.00 85 1017.2
20260901234514 75 23 0.0 0.0 0.00 0.00 0.00 85 1017.0
20260901233012 75 23 0.0 0.0 0.00 0.00 0.00 85 1016.9
20260901231517 75 23 0.0 0.0 0.00 0.00 0.00 85 1016.9
20260901230011 75 20 0.0 0.0 0.00 0.00 0.00 86 1016.9
20260901224509 75 33 0.0 0.0 0.00 0.00 0.00 85 1016.9
20260901223004 75 33 0.0 0.0 0.00 0.00 0.00 85 1017.0
20260901221559 75 33 0.0 0.0 0.00 0.00 0.00 85 1017.1
20260901220116 75 33 0.0 0.0 0.00 0.00 0.00 85 1017.1
20260901214553 76 33 0.0 0.0 0.00 0.00 0.00 85 1017.0
20260901213052 76 33 0.0 0.0 0.00 0.00 0.00 85 1017.0
20260901211553 76 217 0.0 0.0 0.00 0.00 0.00 84 1016.9
20260901210052 77 217 0.0 0.0 0.00 0.00 0.00 84 1016.8
20260901204551 77 217 0.0 0.0 0.00 0.00 0.00 84 1016.9
20260901203054 77 217 0.0 0.0 0.00 0.00 0.00 84 1016.8
20260901201558 78 217 0.0 0.0 0.00 0.00 0.00 84 1016.5
20260901200050 78 217 0.0 0.0 0.00 0.00 0.00 84 1016.5
20260901194553 78 217 0.0 0.0 0.00 0.00 0.00 84 1016.3
20260901193050 78 205 0.0 0.0 0.00 0.00 0.00 84 1015.9
20260901191605 79 194 0.0 0.0 0.00 0.00 0.00 83 1015.7
20260901190048 79 236 0.0 0.0 0.00 0.00 0.00 83 1015.7
20260901184609 79 214 0.0 0.0 0.00 0.00 0.00 82 1015.5
20260901183053 80 153 0.0 0.0 0.00 0.00 0.00 82 1015.4
20260901181557 80 187 0.0 0.0 0.00 0.00 0.00 79 1015.3
20260901180047 81 174 0.0 0.0 0.00 0.00 0.00 78 1015.2